Pagrindinis puslapis
METAR-TAF:

METAR-TAF

Oro uostai :

Sveg, Švedija

platuma: 62-02-52N, ilguma: 014-25-22E, Aukštis: 359 m

Dabartinis oras

Ataskaita buvo paskelbta 35 minutes, ne 16:50 UTC
Vėjas 8 kt iš Pietų/Pietryčių, svyruoja nuo Pietryčių ir Pietų/Pietvakarių
Temperatūra 16°C
Drėgmė 42%
Slėgis 1007 hPa
Matomumas 10 km arba daugiau

METAR: ESND 231650Z AUTO 16008KT 130V200 9999 BKN072/// 16/03 Q1007

Laikas: 19:25 (17:25 UTC)


TAF: trūkstamas

Orai ataskaitas ir orų prognozės (METAR, TAF).

turimą stotys yra geltonos ir raudonos taškus žemėlapyje.

Perkelti pele per norėdami pamatyti stoties vardą.

Tada spustelėkite, norėdami matyti oro stebėjimo ir prognozės.

Norėdami pakeisti žemėlapį: spustelėkite ant žalios mygtukų su juodo kryžiaus žemyn,; žalią mygtuką su brūkšneliu, jei norite nutolinti; arba žalių rodyklių gretimoms žemėlapius.


METAR-TAF: